ELECTRON KICK STAGE R/B, 62928

Orbit data source: Space-Track

ELECTRON KICK STAGE R/B, 62928 is space debris in SSO originally from a launch on Sat, 08 Feb 2025 UTC via an ELECTRON launch vehicle from the Rocket Lab Launch Complex (RLLC). Debris objects in space refer to the collection of defunct objects orbiting the Earth. Examples of debris include non-operational satellites, rocket bodies, and fragments generated from explosions, collisions, or faulty payload assembly.

Loading next visibility...
Identifier
62928, 2025-028A
Orbit
SSO
Country
Flag of USUS
Related business
Manufacturer
Rocket Lab
Mission
Spacecraft
Bus & Motor
KICK STAGE, CURIE
Mass
~50 kg wet, ~50 kg dry
Launch date (UTC)
2025-02-08 (7 months ago)
Launch vehicle
ELECTRON
Launch site
Rocket Lab Launch Complex (RLLC)
Object type
Payload
Rocket body
Debris
Shape & HBR
Trunc Cone, 0.7 m
Radar Cross Section
0.760 m², Medium (>0.1 m² and < 1m²)

Expand to show TLE details & history
Last TLE update: 18 hours ago

TLE from 18 hours ago
0 ELECTRON KICK STAGE R/B
1 62928U 25028A   25259.09665272  .00002768  00000-0  30749-3 0  9993
2 62928  97.9305 314.8629 0041704  32.5148 327.8624 14.87403864 32578
Epoch: 2025-09-16T02:19Z
TLE epoch observation values (Epoch: 2025-09-16T02:19:10.795Z)
Latitude
0.00002°
Longitude
-75.22394°
Altitude
584.447 km
Speed
7.581 km/s
True Right ascension
20h 59m 27s
True Declination
0° 00' 00"
Sunlit
Object was in full shadow at epoch
Visualization orbit readout
Latitude
Unknown
Longitude
Unknown
Altitude
Unknown
Speed
Unknown
Apparent Right ascension
Unknown
Apparent Declination
Unknown
Sunlit
N/A
Visualization observer readout
Local Sidereal Time
12:37:54
Azimuth
Unknown
Elevation
Unknown
Doppler factor
Unknown
Orbital elements
Apogee altitude
632.197 km
Perigee altitude
573.969 km
Semi-major axis
6,981.22 km
Eccentricity
0.00417
Inclination
97.9305°
RAAN
314.8629°
Arg. of periapsis
32.5148°
True anomaly
327.60706°
Mean anomaly
327.8624°
Eccentric anomaly
327.73484°
Mean motion
3.72088 °/min
Orbital period
96.75 mins
BSTAR
0.00030749
Loading maneuver chart data...
Computing Atmospheric mass density...
Loading historical data...
Loading historical data...
Loading historical data...
Loading historical data...
Loading historical data...
Loading historical data...
Loading historical data...

Documentation

Showing up to 5 results
|